Time,TemperatureF,DewpointF,PressureIn,WindDirection,WindDirectionDegrees,WindSpeedMPH,WindSpeedGustMPH,Humidity,HourlyPrecipIn,Conditions,Clouds,dailyrainin,SolarRadiationWatts/m^2,SoftwareType,DateUTC
2013-04-15 00:03:00,46.0,26.0,-100.00,ENE,62,6.0,9.0,45,0.00,,,0.00,0.000000,,2013-04-15 04:03:00,
2013-04-15 00:10:00,45.0,26.0,-100.00,East,87,6.0,11.0,47,0.00,,,0.00,0.000000,,2013-04-15 04:10:00,
2013-04-15 00:33:00,45.0,26.0,-100.00,East,87,6.0,11.0,47,0.00,,,0.00,0.000000,,2013-04-15 04:33:00,
2013-04-15 00:43:00,45.0,26.0,-100.00,East,87,6.0,11.0,47,0.00,,,0.00,0.000000,,2013-04-15 04:43:00,
2013-04-15 00:53:00,45.0,26.0,-100.00,East,87,6.0,11.0,47,0.00,,,0.00,0.000000,,2013-04-15 04:53:00,
2013-04-15 01:03:00,45.0,26.0,-100.00,East,87,6.0,11.0,47,0.00,,,0.00,0.000000,,2013-04-15 05:03:00,
2013-04-15 01:10:00,44.0,26.0,-100.00,East,85,10.0,14.0,48,0.00,,,0.00,0.000000,,2013-04-15 05:10:00,
2013-04-15 01:33:00,44.0,26.0,-100.00,East,85,10.0,14.0,48,0.00,,,0.00,0.000000,,2013-04-15 05:33:00,
2013-04-15 01:43:00,44.0,26.0,-100.00,East,85,10.0,14.0,48,0.00,,,0.00,0.000000,,2013-04-15 05:43:00,
2013-04-15 01:53:00,44.0,26.0,-100.00,East,85,10.0,14.0,48,0.00,,,0.00,0.000000,,2013-04-15 05:53:00,
2013-04-15 02:02:00,44.0,26.0,-100.00,East,85,10.0,14.0,48,0.00,,,0.00,0.000000,,2013-04-15 06:02:00,
2013-04-15 02:10:00,42.0,24.0,-100.00,East,90,7.0,12.0,49,0.00,,,0.00,0.000000,,2013-04-15 06:10:00,
2013-04-15 02:34:00,42.0,24.0,-100.00,East,90,7.0,12.0,49,0.00,,,0.00,0.000000,,2013-04-15 06:34:00,
2013-04-15 02:43:00,42.0,24.0,-100.00,East,90,7.0,12.0,49,0.00,,,0.00,0.000000,,2013-04-15 06:43:00,
2013-04-15 02:53:00,42.0,24.0,-100.00,East,90,7.0,12.0,49,0.00,,,0.00,0.000000,,2013-04-15 06:53:00,
2013-04-15 03:03:00,42.0,24.0,-100.00,East,90,7.0,12.0,49,0.00,,,0.00,0.000000,,2013-04-15 07:03:00,
2013-04-15 03:10:00,41.0,24.0,-100.00,East,100,7.0,12.0,51,0.00,,,0.00,0.000000,,2013-04-15 07:10:00,
2013-04-15 03:43:00,41.0,24.0,-100.00,East,100,7.0,12.0,51,0.00,,,0.00,0.000000,,2013-04-15 07:43:00,
2013-04-15 03:54:00,41.0,24.0,-100.00,East,100,7.0,12.0,51,0.00,,,0.00,0.000000,,2013-04-15 07:54:00,
2013-04-15 04:03:00,41.0,24.0,-100.00,East,100,7.0,12.0,51,0.00,,,0.00,0.000000,,2013-04-15 08:03:00,
2013-04-15 04:10:00,41.0,25.0,-100.00,ESE,113,6.0,11.0,53,0.00,,,0.00,0.000000,,2013-04-15 08:10:00,
2013-04-15 04:43:00,41.0,25.0,-100.00,ESE,113,6.0,11.0,53,0.00,,,0.00,0.000000,,2013-04-15 08:43:00,
2013-04-15 04:52:00,41.0,25.0,-100.00,ESE,113,6.0,11.0,53,0.00,,,0.00,0.000000,,2013-04-15 08:52:00,
2013-04-15 05:03:00,41.0,25.0,-100.00,ESE,113,6.0,11.0,53,0.00,,,0.00,0.000000,,2013-04-15 09:03:00,
2013-04-15 05:10:00,40.0,25.0,-100.00,ESE,105,5.0,9.0,54,0.00,,,0.00,0.000000,,2013-04-15 09:10:00,
2013-04-15 05:33:00,40.0,25.0,-100.00,ESE,105,5.0,9.0,54,0.00,,,0.00,0.000000,,2013-04-15 09:33:00,
2013-04-15 05:43:00,40.0,25.0,-100.00,ESE,105,5.0,9.0,54,0.00,,,0.00,0.000000,,2013-04-15 09:43:00,
2013-04-15 05:53:00,40.0,25.0,-100.00,ESE,105,5.0,9.0,54,0.00,,,0.00,0.000000,,2013-04-15 09:53:00,
2013-04-15 06:03:00,40.0,25.0,-100.00,ESE,105,5.0,9.0,54,0.00,,,0.00,0.000000,,2013-04-15 10:03:00,
2013-04-15 06:10:00,40.0,25.0,-100.00,East,100,5.0,8.0,54,0.00,,,0.00,0.000000,,2013-04-15 10:10:00,
2013-04-15 06:33:00,40.0,25.0,-100.00,East,100,5.0,8.0,54,0.00,,,0.00,0.000000,,2013-04-15 10:33:00,
2013-04-15 06:42:00,40.0,25.0,-100.00,East,100,5.0,8.0,54,0.00,,,0.00,0.000000,,2013-04-15 10:42:00,
2013-04-15 06:53:00,40.0,25.0,-100.00,East,100,5.0,8.0,54,0.00,,,0.00,0.000000,,2013-04-15 10:53:00,
2013-04-15 07:10:00,40.0,25.0,-100.00,ESE,106,5.0,9.0,55,0.00,,,0.00,16.000000,,2013-04-15 11:10:00,
2013-04-15 07:33:00,40.0,25.0,-100.00,ESE,106,5.0,9.0,55,0.00,,,0.00,16.000000,,2013-04-15 11:33:00,
2013-04-15 07:44:00,40.0,25.0,-100.00,ESE,106,5.0,9.0,55,0.00,,,0.00,16.000000,,2013-04-15 11:44:00,
2013-04-15 07:54:00,40.0,25.0,-100.00,ESE,106,5.0,9.0,55,0.00,,,0.00,16.000000,,2013-04-15 11:54:00,
2013-04-15 08:05:00,40.0,25.0,-100.00,ESE,106,5.0,9.0,55,0.00,,,0.00,16.000000,,2013-04-15 12:05:00,
2013-04-15 08:10:00,42.0,27.0,-100.00,ESE,116,6.0,10.0,55,0.00,,,0.00,89.000000,,2013-04-15 12:10:00,
2013-04-15 08:34:00,42.0,27.0,-100.00,ESE,116,6.0,10.0,55,0.00,,,0.00,89.000000,,2013-04-15 12:34:00,
2013-04-15 08:43:00,42.0,27.0,-100.00,ESE,116,6.0,10.0,55,0.00,,,0.00,89.000000,,2013-04-15 12:43:00,
2013-04-15 08:53:00,42.0,27.0,-100.00,ESE,116,6.0,10.0,55,0.00,,,0.00,89.000000,,2013-04-15 12:53:00,
2013-04-15 09:05:00,42.0,27.0,-100.00,ESE,116,6.0,10.0,55,0.00,,,0.00,89.000000,,2013-04-15 13:05:00,
2013-04-15 09:10:00,43.0,25.0,-100.00,ESE,117,10.0,16.0,49,0.00,,,0.00,157.000000,,2013-04-15 13:10:00,
2013-04-15 09:43:00,43.0,25.0,-100.00,ESE,117,10.0,16.0,49,0.00,,,0.00,157.000000,,2013-04-15 13:43:00,
2013-04-15 09:54:00,43.0,25.0,-100.00,ESE,117,10.0,16.0,49,0.00,,,0.00,157.000000,,2013-04-15 13:54:00,
2013-04-15 10:05:00,43.0,25.0,-100.00,ESE,117,10.0,16.0,49,0.00,,,0.00,157.000000,,2013-04-15 14:05:00,
2013-04-15 10:10:00,46.0,28.0,-100.00,ESE,111,11.0,18.0,49,0.00,,,0.00,382.000000,,2013-04-15 14:10:00,
2013-04-15 10:34:00,46.0,28.0,-100.00,ESE,111,11.0,18.0,49,0.00,,,0.00,382.000000,,2013-04-15 14:34:00,
2013-04-15 10:44:00,46.0,28.0,-100.00,ESE,111,11.0,18.0,49,0.00,,,0.00,382.000000,,2013-04-15 14:44:00,
2013-04-15 10:55:00,46.0,28.0,-100.00,ESE,111,11.0,18.0,49,0.00,,,0.00,382.000000,,2013-04-15 14:55:00,
2013-04-15 11:04:00,46.0,28.0,-100.00,ESE,111,11.0,18.0,49,0.00,,,0.00,382.000000,,2013-04-15 15:04:00,
2013-04-15 11:10:00,49.0,30.0,-100.00,ESE,110,9.0,16.0,47,0.00,,,0.00,523.000000,,2013-04-15 15:10:00,
2013-04-15 11:37:00,49.0,30.0,-100.00,ESE,110,9.0,16.0,47,0.00,,,0.00,523.000000,,2013-04-15 15:37:00,
2013-04-15 11:45:00,49.0,30.0,-100.00,ESE,110,9.0,16.0,47,0.00,,,0.00,523.000000,,2013-04-15 15:45:00,
2013-04-15 11:55:00,49.0,30.0,-100.00,ESE,110,9.0,16.0,47,0.00,,,0.00,523.000000,,2013-04-15 15:55:00,
2013-04-15 12:05:00,49.0,30.0,-100.00,ESE,110,9.0,16.0,47,0.00,,,0.00,523.000000,,2013-04-15 16:05:00,
2013-04-15 12:10:00,52.0,31.0,-100.00,ESE,106,10.0,16.0,45,0.00,,,0.00,713.000000,,2013-04-15 16:10:00,
2013-04-15 12:34:00,52.0,31.0,-100.00,ESE,106,10.0,16.0,45,0.00,,,0.00,713.000000,,2013-04-15 16:34:00,
2013-04-15 12:44:00,52.0,31.0,-100.00,ESE,106,10.0,16.0,45,0.00,,,0.00,713.000000,,2013-04-15 16:44:00,
2013-04-15 12:54:00,52.0,31.0,-100.00,ESE,106,10.0,16.0,45,0.00,,,0.00,713.000000,,2013-04-15 16:54:00,
2013-04-15 13:04:00,52.0,31.0,-100.00,ESE,106,10.0,16.0,45,0.00,,,0.00,713.000000,,2013-04-15 17:04:00,
2013-04-15 13:10:00,55.0,33.0,-100.00,SE,128,11.0,17.0,43,0.00,,,0.00,1015.000000,,2013-04-15 17:10:00,
2013-04-15 13:33:00,55.0,33.0,-100.00,SE,128,11.0,17.0,43,0.00,,,0.00,1015.000000,,2013-04-15 17:33:00,
2013-04-15 13:43:00,55.0,33.0,-100.00,SE,128,11.0,17.0,43,0.00,,,0.00,1015.000000,,2013-04-15 17:43:00,
2013-04-15 13:53:00,55.0,33.0,-100.00,SE,128,11.0,17.0,43,0.00,,,0.00,1015.000000,,2013-04-15 17:53:00,
2013-04-15 14:04:00,55.0,33.0,-100.00,SE,128,11.0,17.0,43,0.00,,,0.00,1015.000000,,2013-04-15 18:04:00,
2013-04-15 14:10:00,56.0,33.0,-100.00,East,99,11.0,17.0,42,0.00,,,0.00,932.000000,,2013-04-15 18:10:00,
2013-04-15 14:33:00,56.0,33.0,-100.00,East,99,11.0,17.0,42,0.00,,,0.00,932.000000,,2013-04-15 18:33:00,
2013-04-15 14:42:00,56.0,33.0,-100.00,East,99,11.0,17.0,42,0.00,,,0.00,932.000000,,2013-04-15 18:42:00,
2013-04-15 14:52:00,56.0,33.0,-100.00,East,99,11.0,17.0,42,0.00,,,0.00,932.000000,,2013-04-15 18:52:00,
2013-04-15 15:02:00,56.0,33.0,-100.00,East,99,11.0,17.0,42,0.00,,,0.00,932.000000,,2013-04-15 19:02:00,
2013-04-15 15:10:00,58.0,36.0,-100.00,SE,137,8.0,18.0,43,0.00,,,0.00,873.000000,,2013-04-15 19:10:00,
2013-04-15 15:59:00,58.0,36.0,-100.00,SE,137,8.0,18.0,43,0.00,,,0.00,873.000000,,2013-04-15 19:59:00,
2013-04-15 16:02:00,58.0,36.0,-100.00,SE,137,8.0,18.0,43,0.00,,,0.00,873.000000,,2013-04-15 20:02:00,
2013-04-15 16:10:00,56.0,33.0,-100.00,SE,124,9.0,18.0,42,0.00,,,0.00,596.000000,,2013-04-15 20:10:00,
2013-04-15 16:32:00,56.0,33.0,-100.00,SE,124,9.0,18.0,42,0.00,,,0.00,596.000000,,2013-04-15 20:32:00,
2013-04-15 16:42:00,56.0,33.0,-100.00,SE,124,9.0,18.0,42,0.00,,,0.00,596.000000,,2013-04-15 20:42:00,
2013-04-15 16:52:00,56.0,33.0,-100.00,SE,124,9.0,18.0,42,0.00,,,0.00,596.000000,,2013-04-15 20:52:00,
2013-04-15 17:02:00,56.0,33.0,-100.00,SE,124,9.0,18.0,42,0.00,,,0.00,596.000000,,2013-04-15 21:02:00,
2013-04-15 17:10:00,54.0,33.0,-100.00,SE,134,9.0,17.0,45,0.00,,,0.00,275.000000,,2013-04-15 21:10:00,
2013-04-15 17:43:00,54.0,33.0,-100.00,SE,134,9.0,17.0,45,0.00,,,0.00,275.000000,,2013-04-15 21:43:00,
2013-04-15 17:53:00,54.0,33.0,-100.00,SE,134,9.0,17.0,45,0.00,,,0.00,275.000000,,2013-04-15 21:53:00,
2013-04-15 18:02:00,54.0,33.0,-100.00,SE,134,9.0,17.0,45,0.00,,,0.00,275.000000,,2013-04-15 22:02:00,
2013-04-15 18:10:00,52.0,33.0,-100.00,SE,128,10.0,16.0,49,0.00,,,0.00,175.000000,,2013-04-15 22:10:00,
2013-04-15 18:42:00,52.0,33.0,-100.00,SE,128,10.0,16.0,49,0.00,,,0.00,175.000000,,2013-04-15 22:42:00,
2013-04-15 18:52:00,52.0,33.0,-100.00,SE,128,10.0,16.0,49,0.00,,,0.00,175.000000,,2013-04-15 22:52:00,
2013-04-15 19:02:00,52.0,33.0,-100.00,SE,128,10.0,16.0,49,0.00,,,0.00,175.000000,,2013-04-15 23:02:00,
2013-04-15 19:10:00,50.0,33.0,-100.00,ESE,118,10.0,16.0,52,0.00,,,0.00,57.000000,,2013-04-15 23:10:00,
2013-04-15 19:32:00,50.0,33.0,-100.00,ESE,118,10.0,16.0,52,0.00,,,0.00,57.000000,,2013-04-15 23:32:00,
2013-04-15 19:42:00,50.0,33.0,-100.00,ESE,118,10.0,16.0,52,0.00,,,0.00,57.000000,,2013-04-15 23:42:00,
2013-04-15 19:52:00,50.0,33.0,-100.00,ESE,118,10.0,16.0,52,0.00,,,0.00,57.000000,,2013-04-15 23:52:00,
2013-04-15 20:03:00,50.0,33.0,-100.00,ESE,118,10.0,16.0,52,0.00,,,0.00,57.000000,,2013-04-16 00:03:00,
2013-04-15 21:10:00,47.0,33.0,-100.00,SE,131,9.0,16.0,58,-99.99,,,0.00,0.000000,,2013-04-16 01:10:00,
2013-04-15 21:32:00,47.0,33.0,-100.00,SE,131,9.0,16.0,58,-99.99,,,0.00,0.000000,,2013-04-16 01:32:00,
2013-04-15 21:42:00,47.0,33.0,-100.00,SE,131,9.0,16.0,58,-99.99,,,0.00,0.000000,,2013-04-16 01:42:00,
2013-04-15 21:52:00,47.0,33.0,-100.00,SE,131,9.0,16.0,58,-99.99,,,0.00,0.000000,,2013-04-16 01:52:00,
2013-04-15 22:02:00,47.0,33.0,-100.00,SE,131,9.0,16.0,58,-99.99,,,0.00,0.000000,,2013-04-16 02:02:00,
2013-04-15 22:10:00,46.0,33.0,-100.00,SE,125,8.0,15.0,60,0.00,,,0.00,0.000000,,2013-04-16 02:10:00,
2013-04-15 22:32:00,46.0,33.0,-100.00,SE,125,8.0,15.0,60,0.00,,,0.00,0.000000,,2013-04-16 02:32:00,
2013-04-15 22:42:00,46.0,33.0,-100.00,SE,125,8.0,15.0,60,0.00,,,0.00,0.000000,,2013-04-16 02:42:00,
2013-04-15 22:52:00,46.0,33.0,-100.00,SE,125,8.0,15.0,60,0.00,,,0.00,0.000000,,2013-04-16 02:52:00,
2013-04-15 23:02:00,46.0,33.0,-100.00,SE,125,8.0,15.0,60,0.00,,,0.00,0.000000,,2013-04-16 03:02:00,
2013-04-15 23:10:00,46.0,33.0,-100.00,SE,126,8.0,13.0,60,0.00,,,0.00,0.000000,,2013-04-16 03:10:00,
2013-04-15 23:33:00,46.0,33.0,-100.00,SE,126,8.0,13.0,60,0.00,,,0.00,0.000000,,2013-04-16 03:33:00,
2013-04-15 23:43:00,46.0,33.0,-100.00,SE,126,8.0,13.0,60,0.00,,,0.00,0.000000,,2013-04-16 03:43:00,
2013-04-15 23:53:00,46.0,33.0,-100.00,SE,126,8.0,13.0,60,0.00,,,0.00,0.000000,,2013-04-16 03:53:00,